This is the latest recevied weather packets stored in our database for station/object N2MLB-WX. If no packets are shown the sender has not sent any weather packets the latest 1 day(s).
| Time | Temp. | Humidity | Pressure | Rain* | Wind** | Luminosity | Snow |
|---|---|---|---|---|---|---|---|
| 1778075540 | 8.33° C | 95% | 1004 hPa | 0.51 mm | - | 13 W/m² | - |
| 1778074940 | 8.33° C | 94% | 1004 hPa | 1.52 mm | - | 16 W/m² | - |
| 1778074640 | 8.33° C | 94% | 1004 hPa | 6.35 mm | - | 16 W/m² | - |
| 1778074041 | 8.33° C | 94% | 1004 hPa | 0 mm | - | 23 W/m² | - |
| 1778073740 | 8.33° C | 95% | 1004 hPa | 0 mm | - | 18 W/m² | - |
| 1778073440 | 8.33° C | 95% | 1004 hPa | 0.25 mm | - | 16 W/m² | - |
| 1778073141 | 8.33° C | 95% | 1004 hPa | 0.25 mm | - | 12 W/m² | - |
| 1778072540 | 8.33° C | 95% | 1004 hPa | 0.51 mm | - | 15 W/m² | - |
| 1778072240 | 8.33° C | 95% | 1003 hPa | 0.76 mm | - | 11 W/m² | - |
| 1778071940 | 8.33° C | 95% | 1003 hPa | 1.02 mm | - | 16 W/m² | - |
| 1778071340 | 7.78° C | 95% | 1003 hPa | 0.76 mm | - | 19 W/m² | - |
| 1778071040 | 7.78° C | 95% | 1003 hPa | 1.27 mm | - | 14 W/m² | - |
| 1778069541 | 7.78° C | 96% | 1003 hPa | 1.78 mm | - | 9 W/m² | - |
| 1778068640 | 7.78° C | 97% | 1004 hPa | 1.78 mm | - | 8 W/m² | - |
| 1778067140 | 7.78° C | 97% | 1004 hPa | 2.03 mm | - | 4 W/m² | - |
| 1778066840 | 7.78° C | 97% | 1004 hPa | 2.03 mm | - | 5 W/m² | - |
| 1778065640 | 7.22° C | 97% | 1004 hPa | 2.03 mm | - | 2 W/m² | - |
| 1778065340 | 7.78° C | 97% | 1004 hPa | 2.03 mm | - | 1 W/m² | - |
| 1778065040 | 7.78° C | 97% | 1004 hPa | 2.03 mm | - | 1 W/m² | - |
| 1778064140 | 7.22° C | 97% | 1004 hPa | 2.03 mm | - | 1 W/m² | - |
| 1778063840 | 7.22° C | 97% | 1004 hPa | 2.03 mm | - | 1 W/m² | - |
| 1778063540 | 7.22° C | 97% | 1004 hPa | 2.03 mm | - | 1 W/m² | - |
| 1778062939 | 7.22° C | 97% | 1004 hPa | 2.03 mm | - | 1 W/m² | - |
| 1778061740 | 7.78° C | 98% | 1004 hPa | 2.03 mm | - | 0 W/m² | - |
| 1778061440 | 7.78° C | 98% | 1003 hPa | 2.03 mm | - | 0 W/m² | - |
* Rain latest hour (hover to see other rain measurements)
** Current wind speed in m/s (hover to see current wind gust speed)